Wind_Speed
16 16 16 16 16 15 14 14 14 13 13 13 13 12 12 12 12 12 13 13 13 13 12 12 13 13 14 14 15 15 15 15 16 15 15 14 14 14 14 14 14 14 14
17 18 18 18 17 16 16 15 15 15 15 14 13 13 13 13 13 13 14 14 14 14 14 14 14 15 15 15 16 16 16 16 17 16 15 15 15 14 14 15 15 15 15
19 19 19 19 18 18 17 17 16 16 15 15 15 15 14 14 15 15 15 15 15 15 15 15 16 16 17 17 17 17 17 18 18 17 16 16 16 15 15 15 15 15 15
20 20 20 19 19 19 18 18 17 17 17 16 16 16 16 17 17 16 16 16 16 17 17 17 17 18 18 18 19 19 19 19 19 18 18 17 17 16 16 16 16 16 16
21 20 20 20 19 19 19 19 18 18 18 17 17 17 17 17 17 17 17 17 17 17 18 18 19 19 20 19 20 20 20 20 20 19 18 18 18 17 18 17 18 17 18
21 21 20 20 20 20 19 19 19 19 19 19 18 18 18 18 18 18 18 18 18 18 19 20 20 20 21 21 21 21 20 20 20 20 19 19 18 18 19 19 19 19 19
21 21 20 21 20 20 20 20 20 20 20 20 20 19 18 18 18 18 19 19 20 20 20 21 21 21 21 21 21 20 20 20 20 20 20 20 19 19 20 20 20 21 21
21 21 21 21 21 21 21 21 21 21 21 21 21 20 20 19 19 19 20 21 21 21 21 22 22 22 21 21 21 21 21 21 21 21 21 21 21 21 21 20 20 21 21
22 22 22 22 21 21 21 21 21 21 21 21 21 20 20 20 20 20 20 20 21 21 21 22 22 22 21 21 22 22 22 22 22 22 21 21 20 20 20 20 20 20 20
22 22 23 23 23 22 21 21 22 22 21 21 21 20 21 21 21 21 21 21 21 21 22 22 22 22 22 22 22 22 22 22 22 22 21 21 21 21 21 21 21 20 20
23 23 23 22 23 22 22 21 22 22 22 21 21 21 22 22 22 23 22 22 22 22 22 22 22 23 23 23 23 22 22 22 22 22 22 22 23 22 22 22 22 21 21
23 23 23 23 23 23 23 23 23 22 22 22 22 22 23 23 23 23 23 22 22 22 22 22 22 23 24 23 23 23 23 23 23 23 23 23 23 23 22 22 22 22 22
24 24 24 24 24 24 24 24 24 24 24 24 24 24 23 23 23 23 23 23 23 23 23 23 23 23 24 24 24 24 23 23 23 23 23 24 23 23 23 22 22 22 22
25 25 25 25 25 25 25 25 25 25 25 25 25 24 24 24 24 24 24 24 24 24 24 25 25 24 25 25 25 24 24 25 25 24 24 24 24 24 24 23 22 22 22
26 26 26 26 26 25 25 25 25 25 26 26 26 26 25 25 25 25 25 25 25 25 26 26 26 25 25 26 26 26 25 26 26 26 25 25 25 25 25 24 23 23 23
27 27 27 26 26 26 26 26 26 27 27 28 27 27 27 26 26 26 26 26 26 26 27 27 26 26 26 27 26 26 26 26 26 26 26 25 26 26 26 25 24 23 24
28 27 27 27 27 27 27 27 27 28 28 28 28 28 28 28 27 27 27 27 27 27 27 27 27 27 27 27 27 26 26 26 26 26 26 26 26 26 26 26 25 25 24
29 29 29 29 29 29 29 29 29 29 29 29 28 28 28 28 28 28 28 28 28 28 28 27 27 27 27 27 27 26 26 26 26 26 26 26 26 26 25 25 25 25 25
30 30 30 31 30 30 30 29 29 29 29 29 28 28 28 29 29 29 29 29 29 29 28 28 27 27 27 26 26 26 26 26 26 26 26 26 26 26 25 25 25 25 26
31 31 31 30 30 30 30 30 30 29 29 29 28 28 29 30 29 29 29 29 29 29 29 28 28 27 26 26 26 26 26 26 26 27 26 26 26 26 26 26 26 26 26
31 31 31 31 30 30 30 30 30 30 30 29 29 30 30 30 30 30 30 30 29 29 28 28 28 27 26 27 27 27 26 26 26 26 25 25 26 26 26 26 26 26 27
31 32 32 31 31 31 30 30 31 31 31 31 31 31 31 31 31 31 31 31 30 30 29 28 27 27 27 27 27 27 27 26 26 25 25 25 25 26 26 26 27 27 28
32 32 32 32 32 32 32 32 32 32 32 33 33 32 32 32 32 31 31 31 30 30 30 29 28 28 27 28 27 27 27 27 27 27 26 26 27 27 27 27 28 28 29
33 32 33 33 33 33 33 33 33 33 33 33 33 33 32 32 32 32 32 31 31 31 30 30 29 29 28 28 28 28 28 28 28 28 28 28 28 27 28 28 28 29 29
33 33 33 33 33 33 33 33 33 33 33 34 34 34 34 34 34 33 33 33 33 32 31 30 29 29 29 28 28 28 28 28 28 28 28 29 28 28 28 29 29 29 29
33 33 33 33 33 33 33 33 34 35 35 36 35 36 36 36 35 35 35 35 34 33 32 31 30 30 30 30 29 29 29 29 29 29 29 29 29 29 28 28 29 29 29
Wind_Direction
282 281 282 284 286 288 290 291 292 293 294 292 290 288 286 284 282 282 282 281 282 286 287 289 290 291 295 297 297 297 297 297 299 299 297 293 292 288 286 287 289 288 288
280 279 280 283 284 284 285 286 287 288 290 287 284 284 284 283 283 283 281 279 280 283 285 288 289 290 292 294 295 294 294 294 296 297 295 292 290 288 286 287 287 288 289
279 278 277 280 282 283 283 283 283 284 285 282 281 281 281 281 283 282 279 277 279 281 283 286 289 290 290 291 292 292 292 293 293 293 291 288 286 286 286 285 286 287 288
278 278 277 278 278 280 281 282 282 283 282 279 279 279 278 280 280 280 281 279 281 282 283 286 288 290 290 290 290 291 292 293 292 291 288 286 284 284 282 282 283 286 287
279 278 279 276 277 277 277 279 279 280 280 279 277 280 280 279 279 279 280 281 281 282 283 285 287 289 290 291 291 291 292 291 290 289 287 285 283 281 280 280 281 284 286
281 280 279 277 276 277 276 276 276 277 278 278 280 280 280 280 280 280 282 284 282 283 284 285 286 288 289 290 291 291 291 291 289 287 286 284 282 281 279 279 280 282 284
280 280 279 278 276 276 274 273 274 277 277 278 281 283 282 281 280 280 281 283 284 284 285 286 286 288 289 290 290 291 290 290 288 286 285 284 281 279 280 280 280 281 283
280 279 279 278 277 275 273 273 274 276 276 277 279 281 282 282 282 282 283 284 284 284 284 284 285 286 287 288 288 289 290 289 288 284 283 282 280 278 279 280 281 281 282
279 279 279 279 277 275 275 275 274 276 277 276 277 278 280 281 282 283 284 284 283 284 284 284 285 285 287 287 288 288 289 289 287 284 281 281 280 281 280 281 281 281 280
278 278 277 278 277 277 277 277 277 277 278 276 274 274 278 281 282 282 284 283 283 283 284 285 285 286 287 287 288 287 287 286 285 282 280 279 280 280 280 280 280 280 281
278 278 279 279 278 278 278 278 279 278 278 277 274 274 278 280 282 283 282 282 282 282 283 284 285 286 287 287 287 287 286 285 284 283 280 278 278 277 277 277 278 278 279
278 279 280 280 279 278 277 277 278 278 279 278 276 276 278 279 281 282 281 280 281 282 282 283 285 287 287 287 286 285 284 284 284 283 280 278 278 276 275 275 276 276 277
279 278 279 279 278 277 277 277 277 278 279 279 278 277 277 278 279 280 279 280 280 281 282 284 286 287 287 286 286 285 283 282 283 283 281 278 278 275 273 274 276 275 277
278 278 278 278 277 277 278 278 278 278 278 279 277 277 277 277 278 279 279 279 279 279 280 284 286 286 286 286 285 285 283 281 280 281 279 278 276 275 272 273 275 275 275
277 277 278 278 277 277 277 278 279 279 279 279 277 276 276 277 278 278 279 278 278 278 280 283 284 283 284 285 285 284 283 281 280 279 278 277 277 275 273 273 275 276 276
276 277 277 277 277 277 277 277 278 278 279 278 277 275 275 276 277 277 278 279 279 278 280 281 281 282 282 283 284 283 283 282 280 279 277 277 277 277 274 273 275 277 278
275 276 276 275 276 276 276 276 277 277 280 280 278 275 275 276 277 277 278 279 279 279 280 281 281 282 282 283 283 282 282 282 282 280 278 277 278 277 276 275 276 278 279
276 276 275 275 275 276 276 278 277 277 279 278 277 275 274 276 277 277 277 278 279 279 280 281 281 281 282 282 282 281 281 282 283 282 280 278 277 277 276 277 278 278 280
276 276 276 275 276 276 276 277 277 277 278 277 276 275 275 276 277 278 277 278 279 279 279 280 280 280 280 281 281 281 282 283 282 281 279 278 277 277 277 277 279 281 281
276 276 276 276 275 275 275 275 276 276 276 277 276 276 276 277 277 278 278 279 280 280 279 279 278 278 277 279 280 281 282 282 282 280 278 277 276 276 277 277 278 280 280
275 275 276 275 275 275 275 275 275 275 275 276 276 276 275 274 275 276 278 279 279 280 279 278 277 275 276 277 279 280 280 281 281 280 278 277 276 276 277 277 278 279 281
275 275 275 275 275 275 275 275 275 275 275 275 276 276 275 274 274 276 277 278 277 277 276 276 275 275 276 277 279 279 278 279 280 281 280 278 277 277 277 278 279 280 281
275 275 275 275 275 275 275 275 276 275 275 275 275 275 274 274 274 275 275 276 276 276 275 275 274 275 276 277 277 277 277 277 278 278 279 278 279 277 277 278 279 279 280
276 275 274 274 274 274 275 275 275 275 275 275 275 275 274 274 273 273 274 275 275 276 276 276 274 275 276 277 276 276 277 278 278 277 277 278 280 279 278 278 280 281 280
275 276 275 274 274 274 274 275 276 275 275 275 275 275 274 274 273 272 273 273 273 273 273 274 273 274 274 275 274 275 277 278 278 278 278 278 279 279 279 278 278 280 281
275 276 275 275 274 274 274 274 275 275 274 274 275 276 274 273 273 272 272 272 272 271 270 271 273 274 274 274 274 275 277 277 277 277 278 278 278 279 279 278 277 278 280
Height
5820 5819 5818 5818 5817 5816 5815 5814 5813 5812 5810 5809 5808 5807 5806 5805 5805 5804 5804 5803 5803 5802 5802 5801 5800 5799 5798 5797 5796 5794 5793 5792 5791 5789 5788 5786 5785 5785 5784 5783 5782 5782 5781
5816 5815 5814 5813 5812 5812 5811 5810 5808 5807 5806 5805 5804 5804 5803 5802 5801 5801 5800 5799 5799 5799 5798 5797 5797 5796 5795 5794 5792 5791 5789 5788 5787 5785 5784 5783 5782 5781 5780 5779 5779 5778 5777
5810 5809 5808 5808 5807 5806 5806 5805 5804 5803 5802 5801 5801 5800 5799 5798 5797 5796 5796 5795 5795 5794 5794 5793 5792 5791 5790 5789 5788 5786 5785 5784 5782 5781 5780 5778 5778 5777 5776 5775 5774 5774 5773
5804 5803 5803 5802 5802 5801 5801 5800 5799 5798 5797 5797 5796 5795 5794 5794 5793 5792 5791 5791 5790 5790 5789 5788 5787 5786 5785 5784 5783 5781 5780 5779 5777 5776 5775 5774 5773 5772 5771 5771 5770 5769 5768
5798 5798 5797 5797 5796 5795 5795 5795 5794 5793 5793 5792 5791 5790 5789 5788 5788 5787 5786 5785 5785 5784 5784 5783 5782 5781 5780 5779 5777 5776 5775 5773 5772 5770 5770 5769 5768 5767 5767 5766 5765 5764 5763
5792 5791 5791 5791 5790 5790 5789 5789 5788 5788 5787 5787 5786 5785 5784 5783 5783 5782 5781 5780 5780 5779 5778 5777 5776 5775 5774 5773 5771 5770 5769 5767 5766 5765 5764 5763 5763 5762 5761 5760 5760 5759 5758
5786 5785 5785 5784 5784 5784 5783 5783 5782 5782 5781 5781 5780 5779 5778 5778 5777 5776 5776 5775 5774 5773 5772 5771 5770 5769 5768 5767 5765 5764 5763 5761 5760 5759 5758 5758 5757 5756 5755 5755 5754 5753 5752
5780 5779 5778 5778 5778 5777 5777 5776 5776 5776 5775 5775 5774 5773 5772 5772 5771 5770 5770 5769 5768 5767 5766 5765 5764 5763 5762 5760 5759 5758 5756 5755 5754 5753 5752 5751 5751 5749 5749 5748 5747 5746 5746
5773 5773 5772 5771 5771 5771 5770 5770 5769 5769 5768 5768 5767 5767 5766 5766 5765 5764 5763 5762 5762 5761 5760 5759 5758 5757 5755 5754 5753 5752 5750 5749 5747 5746 5745 5745 5744 5743 5742 5742 5741 5740 5740
5767 5766 5765 5765 5764 5764 5763 5763 5762 5762 5761 5761 5760 5760 5760 5759 5759 5758 5757 5756 5755 5754 5754 5753 5751 5750 5749 5747 5746 5745 5743 5742 5740 5739 5739 5738 5737 5736 5736 5735 5734 5734 5733
5760 5759 5758 5758 5757 5757 5757 5756 5756 5755 5754 5754 5753 5753 5753 5753 5752 5751 5750 5749 5748 5748 5747 5746 5745 5743 5742 5741 5739 5738 5737 5735 5734 5733 5732 5731 5730 5729 5728 5728 5727 5727 5726
5753 5752 5752 5751 5751 5750 5749 5749 5748 5748 5747 5747 5746 5746 5746 5745 5744 5743 5743 5742 5741 5740 5740 5739 5738 5736 5735 5734 5732 5731 5729 5728 5727 5726 5725 5724 5723 5722 5721 5720 5720 5719 5718
5746 5745 5745 5744 5743 5743 5742 5742 5741 5740 5740 5739 5739 5738 5738 5738 5737 5736 5735 5734 5734 5733 5732 5731 5730 5729 5727 5726 5725 5723 5722 5721 5720 5718 5717 5716 5715 5714 5713 5713 5712 5711 5711
5739 5738 5737 5737 5736 5735 5735 5734 5733 5733 5732 5731 5731 5730 5730 5730 5729 5728 5727 5727 5726 5725 5725 5724 5723 5721 5720 5719 5717 5716 5714 5713 5712 5710 5709 5708 5707 5706 5705 5705 5704 5704 5704
5730 5730 5729 5729 5728 5727 5727 5726 5725 5725 5724 5723 5722 5722 5722 5722 5721 5720 5719 5719 5718 5718 5717 5716 5715 5714 5712 5711 5709 5707 5706 5704 5703 5702 5700 5700 5699 5698 5697 5696 5696 5696 5696
5722 5722 5721 5721 5720 5720 5719 5718 5717 5717 5716 5714 5714 5713 5713 5713 5712 5712 5711 5711 5710 5709 5708 5707 5706 5705 5704 5702 5701 5699 5697 5696 5694 5693 5692 5691 5690 5689 5689 5688 5688 5688 5688
5714 5714 5713 5712 5712 5711 5710 5710 5709 5708 5707 5706 5705 5704 5704 5704 5703 5703 5703 5702 5701 5700 5700 5699 5698 5697 5695 5694 5692 5691 5689 5688 5686 5685 5684 5683 5682 5681 5680 5680 5680 5680 5680
5705 5705 5704 5704 5703 5702 5701 5700 5699 5699 5698 5697 5696 5695 5695 5695 5694 5694 5693 5693 5692 5691 5691 5690 5689 5687 5686 5685 5684 5682 5681 5679 5678 5677 5676 5675 5674 5674 5673 5673 5672 5672 5672
5696 5696 5695 5694 5693 5693 5692 5691 5690 5689 5689 5688 5687 5686 5686 5685 5685 5685 5684 5683 5682 5682 5681 5680 5679 5679 5677 5676 5675 5674 5673 5671 5670 5668 5668 5667 5666 5666 5666 5666 5665 5665 5664
5687 5686 5686 5685 5684 5683 5682 5682 5681 5680 5679 5679 5678 5678 5677 5676 5676 5675 5674 5674 5673 5672 5671 5671 5670 5669 5669 5668 5667 5666 5665 5663 5662 5661 5660 5659 5659 5658 5658 5658 5657 5657 5656
5678 5677 5676 5675 5674 5674 5673 5672 5672 5671 5670 5669 5669 5668 5667 5667 5666 5666 5665 5664 5663 5663 5662 5661 5661 5661 5660 5659 5659 5658 5657 5655 5654 5653 5652 5651 5651 5651 5650 5650 5649 5649 5648
5668 5667 5666 5665 5665 5664 5663 5663 5662 5661 5660 5660 5659 5658 5657 5656 5656 5656 5655 5654 5654 5653 5653 5652 5652 5652 5651 5651 5650 5649 5648 5648 5647 5646 5645 5644 5643 5643 5642 5642 5641 5640 5639
5658 5657 5656 5655 5654 5654 5653 5652 5652 5651 5650 5650 5649 5648 5647 5647 5646 5646 5645 5644 5644 5643 5643 5643 5643 5643 5642 5642 5641 5640 5640 5639 5638 5638 5636 5636 5635 5634 5634 5633 5632 5632 5631
5647 5647 5646 5645 5644 5643 5643 5642 5641 5640 5640 5639 5638 5638 5637 5636 5636 5635 5635 5634 5634 5634 5634 5633 5633 5633 5633 5633 5632 5632 5631 5630 5629 5629 5628 5627 5626 5625 5625 5624 5623 5623 5622
5637 5636 5635 5634 5634 5633 5632 5632 5631 5630 5629 5628 5628 5627 5626 5626 5625 5625 5624 5624 5624 5624 5624 5624 5624 5624 5624 5623 5623 5622 5622 5621 5620 5620 5619 5618 5617 5616 5615 5615 5614 5613 5612
5626 5625 5624 5624 5623 5622 5621 5621 5620 5619 5618 5618 5617 5616 5615 5614 5614 5614 5614 5614 5614 5614 5614 5614 5614 5614 5614 5614 5613 5613 5612 5612 5611 5610 5610 5609 5608 5608 5607 5606 5605 5604 5603